Hourly Weather Rudny

Today, 16 April, Friday

Time Temperature Precipitation Wind Pressure Humidity
00:00 +9°C° 0 mm 2 mps 749 mmHg 59%
01:00 +8°C° 0 mm 2 mps 749 mmHg 60%
02:00 +8°C° 0 mm 2 mps 749 mmHg 62%
03:00 +8°C° 0 mm 2 mps 749 mmHg 63%
04:00 +7°C° 0 mm 2 mps 749 mmHg 64%
05:00 +8°C° 0 mm 2 mps 749 mmHg 65%
06:00 +9°C° 0 mm 2 mps 749 mmHg 65%
07:00 +9°C° 0 mm 2 mps 748 mmHg 65%
08:00 +12°C° 0 mm 2 mps 748 mmHg 60%
09:00 +14°C° 0 mm 2 mps 748 mmHg 54%
10:00 +16°C° 0 mm 2 mps 748 mmHg 48%
11:00 +17°C° 0 mm 2 mps 748 mmHg 47%
12:00 +18°C° 0 mm 2 mps 748 mmHg 45%
13:00 +19°C° 0 mm 2 mps 748 mmHg 44%
14:00 +19°C° 0 mm 3 mps 748 mmHg 44%
15:00 +19°C° 0 mm 3 mps 748 mmHg 44%
16:00 +19°C° 0 mm 3 mps 748 mmHg 44%
17:00 +16°C° 0 mm 5 mps 749 mmHg 57%
18:00 +14°C° 0 mm 6 mps 749 mmHg 70%
19:00 +10°C° 0 mm 8 mps 750 mmHg 83%
20:00 +9°C° 0 mm 7 mps 750 mmHg 84%
21:00 +8°C° 0 mm 6 mps 750 mmHg 84%
22:00 +7°C° 0 mm 5 mps 751 mmHg 85%
23:00 +7°C° 0 mm 4 mps 751 mmHg 85%

Tomorrow, 17 April, Saturday

Time Temperature Precipitation Wind Pressure Humidity
00:00 +7°C° 0 mm 4 mps 751 mmHg 85%
01:00 +7°C° 0 mm 3 mps 751 mmHg 85%
02:00 +7°C° 0 mm 3 mps 751 mmHg 85%
03:00 +7°C° 0 mm 3 mps 751 mmHg 84%
04:00 +7°C° 0 mm 3 mps 751 mmHg 84%
05:00 +7°C° 0 mm 3 mps 751 mmHg 82%
06:00 +7°C° 0 mm 3 mps 751 mmHg 80%
07:00 +7°C° 0 mm 2 mps 752 mmHg 78%
08:00 +8°C° 0 mm 2 mps 752 mmHg 73%
09:00 +9°C° 0 mm 2 mps 752 mmHg 68%
10:00 +10°C° 0 mm 2 mps 752 mmHg 63%
11:00 +12°C° 0 mm 2 mps 751 mmHg 60%
12:00 +13°C° 0 mm 2 mps 751 mmHg 57%
13:00 +14°C° 0 mm 1 mps 751 mmHg 54%
14:00 +14°C° 0 mm 1 mps 751 mmHg 54%
15:00 +14°C° 0 mm 1 mps 750 mmHg 53%
16:00 +15°C° 0 mm 1 mps 750 mmHg 53%
17:00 +14°C° 0 mm 1 mps 750 mmHg 57%
18:00 +13°C° 0 mm 1 mps 750 mmHg 61%
19:00 +13°C° 0 mm 2 mps 750 mmHg 65%
20:00 +12°C° 0 mm 1 mps 750 mmHg 67%
21:00 +12°C° 0 mm 1 mps 749 mmHg 68%
22:00 +12°C° 0 mm 1 mps 749 mmHg 70%
23:00 +11°C° 0 mm 1 mps 749 mmHg 73%

Day after tomorrow, 18 April, Sunday

Time Temperature Precipitation Wind Pressure Humidity
00:00 +10°C° 0 mm 1 mps 748 mmHg 75%
01:00 +10°C° 0 mm 1 mps 748 mmHg 78%
02:00 +9°C° 0 mm 1 mps 748 mmHg 79%
03:00 +9°C° 0 mm 1 mps 748 mmHg 80%
04:00 +9°C° 0 mm 1 mps 748 mmHg 80%
05:00 +8°C° 0 mm 2 mps 748 mmHg 81%
06:00 +8°C° 0 mm 2 mps 748 mmHg 82%
07:00 +8°C° 0 mm 2 mps 748 mmHg 83%
08:00 +8°C° 0 mm 3 mps 748 mmHg 73%
09:00 +8°C° 0 mm 4 mps 748 mmHg 62%
10:00 +10°C° 0 mm 4 mps 748 mmHg 52%
11:00 +9°C° 0 mm 5 mps 748 mmHg 47%
12:00 +10°C° 0 mm 5 mps 748 mmHg 43%
13:00 +11°C° 0 mm 6 mps 748 mmHg 38%
14:00 +10°C° 0 mm 7 mps 748 mmHg 43%
15:00 +10°C° 0 mm 8 mps 749 mmHg 48%
16:00 +9°C° 0 mm 8 mps 749 mmHg 54%
17:00 +6°C° 0 mm 8 mps 750 mmHg 52%
18:00 +5°C° 0 mm 8 mps 751 mmHg 50%
19:00 +2°C° 0 mm 8 mps 752 mmHg 48%
20:00 +1°C° 0 mm 8 mps 752 mmHg 49%
21:00 0°C° 0 mm 7 mps 753 mmHg 49%
22:00 -1°C° 0 mm 7 mps 754 mmHg 49%
23:00 -2°C° 0 mm 7 mps 754 mmHg 52%

19 April, Monday

Time Temperature Precipitation Wind Pressure Humidity
00:00 -2°C° 0 mm 6 mps 755 mmHg 55%
01:00 -2°C° 0 mm 5 mps 755 mmHg 59%
02:00 -4°C° 0 mm 5 mps 756 mmHg 58%
03:00 -4°C° 0 mm 5 mps 756 mmHg 58%
04:00 -5°C° 0 mm 5 mps 757 mmHg 57%
05:00 -4°C° 0 mm 5 mps 757 mmHg 53%
06:00 -4°C° 0 mm 5 mps 757 mmHg 48%
07:00 -4°C° 0 mm 6 mps 758 mmHg 43%
08:00 -3°C° 0 mm 6 mps 758 mmHg 41%
09:00 -2°C° 0 mm 6 mps 758 mmHg 38%
10:00 -2°C° 0 mm 6 mps 758 mmHg 35%
11:00 -1°C° 0 mm 6 mps 758 mmHg 34%
12:00 -1°C° 0 mm 6 mps 758 mmHg 32%
13:00 +1°C° 0 mm 6 mps 758 mmHg 31%
14:00 -1°C° 0 mm 6 mps 758 mmHg 31%
15:00 -1°C° 0 mm 6 mps 758 mmHg 31%
16:00 -1°C° 0 mm 6 mps 758 mmHg 30%
17:00 -1°C° 0 mm 6 mps 758 mmHg 34%
18:00 -1°C° 0 mm 5 mps 759 mmHg 38%
19:00 -2°C° 0 mm 5 mps 759 mmHg 41%
20:00 -2°C° 0 mm 4 mps 759 mmHg 44%
21:00 -3°C° 0 mm 4 mps 759 mmHg 46%
22:00 -2°C° 0 mm 3 mps 760 mmHg 48%
23:00 -4°C° 0 mm 3 mps 760 mmHg 49%

20 April, Tuesday

Time Temperature Precipitation Wind Pressure Humidity
00:00 -4°C° 0 mm 3 mps 760 mmHg 50%
01:00 -4°C° 0 mm 3 mps 760 mmHg 51%
02:00 -4°C° 0 mm 3 mps 760 mmHg 52%
03:00 -5°C° 0 mm 3 mps 760 mmHg 53%
04:00 -5°C° 0 mm 3 mps 761 mmHg 53%
05:00 -4°C° 0 mm 3 mps 761 mmHg 48%
06:00 -4°C° 0 mm 4 mps 761 mmHg 42%
07:00 -3°C° 0 mm 4 mps 761 mmHg 36%
08:00 -2°C° 0 mm 4 mps 761 mmHg 34%
09:00 -1°C° 0 mm 4 mps 761 mmHg 31%
10:00 +1°C° 0 mm 3 mps 761 mmHg 29%
11:00 +1°C° 0 mm 3 mps 761 mmHg 29%
12:00 +2°C° 0 mm 3 mps 761 mmHg 28%
13:00 +3°C° 0 mm 3 mps 760 mmHg 28%
14:00 +4°C° 0 mm 2 mps 760 mmHg 28%
15:00 +5°C° 0 mm 2 mps 760 mmHg 27%
16:00 +5°C° 0 mm 2 mps 760 mmHg 27%
17:00 +4°C° 0 mm 2 mps 760 mmHg 31%
18:00 +5°C° 0 mm 1 mps 760 mmHg 34%
19:00 +4°C° 0 mm 1 mps 760 mmHg 38%
20:00 +4°C° 0 mm 1 mps 760 mmHg 39%
21:00 +3°C° 0 mm 1 mps 760 mmHg 40%
22:00 +2°C° 0 mm 0 mps 760 mmHg 41%
23:00 +2°C° 0 mm 1 mps 761 mmHg 42%

21 April, Wednesday

Time Temperature Precipitation Wind Pressure Humidity
00:00 +2°C° 0 mm 1 mps 761 mmHg 44%
01:00 +1°C° 0 mm 2 mps 761 mmHg 45%
02:00 +1°C° 0 mm 2 mps 761 mmHg 46%
03:00 -1°C° 0 mm 2 mps 761 mmHg 48%
04:00 -1°C° 0 mm 2 mps 761 mmHg 49%
05:00 +1°C° 0 mm 2 mps 762 mmHg 46%
06:00 +2°C° 0 mm 2 mps 762 mmHg 43%
07:00 +3°C° 0 mm 2 mps 762 mmHg 40%
08:00 +4°C° 0 mm 2 mps 762 mmHg 37%
09:00 +5°C° 0 mm 2 mps 762 mmHg 34%
10:00 +7°C° 0 mm 2 mps 762 mmHg 31%
11:00 +7°C° 0 mm 2 mps 762 mmHg 30%
12:00 +8°C° 0 mm 2 mps 762 mmHg 29%
13:00 +9°C° 0 mm 2 mps 762 mmHg 28%
14:00 +10°C° 0 mm 2 mps 762 mmHg 28%
15:00 +10°C° 0 mm 2 mps 762 mmHg 28%
16:00 +10°C° 0 mm 2 mps 762 mmHg 28%
17:00 +10°C° 0 mm 2 mps 762 mmHg 32%
18:00 +9°C° 0 mm 2 mps 762 mmHg 35%
19:00 +8°C° 0 mm 2 mps 762 mmHg 39%
20:00 +7°C° 0 mm 2 mps 762 mmHg 41%
21:00 +6°C° 0 mm 2 mps 762 mmHg 43%
22:00 +6°C° 0 mm 2 mps 762 mmHg 45%
23:00 +5°C° 0 mm 2 mps 762 mmHg 47%
Show more